Tracking 30009 objects as of 7-Dec-2024
HD Live streaming from Space Station
objects crossing your sky now

APRIZESAT 1

Track APRIZESAT 1 now!
10-day predictions
APRIZESAT 1 is classified as:


NORAD ID: 28372
Int'l Code: 2004-025G
Perigee: 696.5 km
Apogee: 761.8 km
Inclination: 98.6 °
Period: 99.2 minutes
Semi major axis: 7100 km
RCS: 0.0588 m2 (small)
Launch date: June 29, 2004
Source: United States (US)
Launch site: TYURATAM MISSILE AND SPACE COMPLEX (TTMTR)

Uplink (MHz):
Downlink (MHz):
Beacon (MHz):
Mode:
Call sign:
Status: Unknown


Messaging services.
Your satellite tracking list
Your tracking list is empty




NASA's NSSDC Master Catalog

Two Line Element Set (TLE):
1 28372U 04025G   24341.89942861  .00001039  00000-0  27050-3 0  9994
2 28372  98.6102 327.0392 0045984  50.5073 310.0174 14.51127551 81069
Source of the keplerian elements: AFSPC